Lid_Strength_Index
-1 -1 -1 -1 -0 -0 -0 0 0 0 0 0 0 0 1 1 1 1 2 0 3 5 5 5 5 5 6 6 8 6 8 7 9 11 12 12 13 12 12 11 12 12 13 13 12 15 16 7 6 10 8 6 6 5
-1 -1 -1 -1 -1 -1 -1 -1 -0 -0 -0 -0 -0 -0 0 1 1 1 3 1 1 3 5 3 3 3 4 4 6 5 7 7 7 9 9 9 11 10 11 14 8 13 10 11 10 11 6 5 6 4 5 6 5 5
-1 -1 -1 -1 -1 -1 -1 -1 -1 -1 -0 -1 -0 -0 0 1 1 1 2 1 2 4 5 5 6 3 2 3 2 7 6 5 6 5 7 8 11 9 12 11 10 8 7 9 9 8 7 5 4 4 4 5 4 4
-1 -1 -1 -1 -1 -1 -1 -1 -1 -1 -1 -1 -0 0 0 1 1 1 2 1 2 4 7 6 2 3 1 2 3 3 4 4 4 5 7 8 10 7 10 9 9 8 7 8 9 8 6 5 5 4 4 4 5 3
-1 -1 -1 -1 -1 -1 -1 -1 -1 -1 -1 -1 -0 -0 0 0 1 -0 -0 0 1 4 7 6 3 3 2 2 3 3 4 5 6 7 8 9 7 7 7 8 10 7 8 9 10 6 6 6 4 4 5 5 4 4
-1 -1 -1 -1 -1 -1 -1 -1 -1 -1 -1 -1 -1 -0 -0 -0 0 1 6 0 0 1 5 9 3 4 3 3 3 4 3 4 4 6 7 7 6 7 10 11 8 7 6 5 7 5 5 4 4 4 5 4 3 4
-1 -1 -0 -1 0 -1 -1 -1 -1 -1 -1 -1 -1 -1 -1 -1 -0 3 4 2 0 0 6 8 7 3 3 3 3 3 3 4 5 6 7 7 7 6 9 12 7 6 5 5 4 5 6 5 6 4 4 4 4 3
-1 -0 0 -0 -0 -0 -1 -1 -1 -1 -1 -1 -1 -1 -1 -0 1 2 0 -0 -0 3 4 8 8 6 3 6 7 3 6 6 6 6 6 8 7 7 11 7 6 6 5 5 5 5 5 4 5 5 5 6 6 6
-1 -1 -0 -0 -0 -0 -0 -0 -0 -0 -0 -0 -0 0 1 2 3 2 -1 0 0 3 7 7 9 10 4 5 5 6 5 9 5 9 8 8 9 11 8 7 7 6 6 6 5 5 5 6 5 5 5 6 5 5
-1 -1 -0 -0 -0 -0 -0 0 0 0 0 0 2 3 5 3 -0 1 3 6 6 6 6 8 5 9 6 6 8 8 7 9 11 9 7 9 10 7 6 5 5 5 5 5 7 8 7 7 6 6 5 4 4 4
-1 -1 -1 -1 -0 -0 -0 -0 0 0 1 2 3 5 2 0 2 4 8 8 7 9 6 6 6 8 4 8 9 7 9 9 12 10 11 11 12 9 7 7 6 6 5 6 5 5 4 5 5 5 4 3 4 4
-1 -1 -1 -1 -1 -1 -0 -0 -0 1 1 1 1 1 1 4 6 8 9 7 8 9 6 7 6 5 5 4 8 7 10 10 13 8 11 13 10 6 6 5 4 4 4 4 4 4 3 3 3 3 4 4 5 6
-1 -1 -1 -1 -1 -0 0 0 0 -0 -1 0 3 6 7 6 11 11 12 10 9 6 6 6 8 6 5 5 7 8 11 11 8 11 12 9 7 6 5 5 4 4 4 4 4 3 3 4 4 4 6 7 6 7
-0 -0 -0 -0 -0 -0 -0 1 1 1 2 5 7 10 9 10 9 9 8 8 6 6 6 6 7 8 7 8 8 11 9 9 12 13 12 9 7 6 5 5 5 7 7 6 7 8 8 8 8 8 8 8 8 9
0 0 0 0 -1 -0 0 1 1 1 4 7 6 10 9 6 6 6 5 6 5 4 5 6 7 7 9 10 9 10 11 13 11 11 9 7 6 6 6 6 7 8 8 8 8 8 8 8 8 8 8 8 8 9
0 1 1 0 0 0 1 1 1 1 3 5 7 8 6 7 8 7 7 7 4 5 5 6 8 10 10 9 11 12 12 12 11 9 7 6 6 6 6 8 9 8 8 8 8 8 8 8 8 8 9 9 9 9
0 1 0 0 1 1 1 2 2 4 6 7 8 6 6 7 8 7 6 6 3 6 8 8 11 11 8 11 11 9 10 9 8 6 5 5 6 7 8 8 9 8 8 8 8 9 9 9 9 9 10 10 9 9
1 0 -0 0 1 2 2 3 4 5 8 6 8 7 6 5 7 6 5 4 5 6 6 9 7 10 11 12 10 9 8 7 5 5 5 6 6 7 7 7 8 7 8 8 8 9 9 8 8 8 9 9 9 10
1 1 1 0 1 2 5 4 3 8 6 5 5 5 5 6 4 4 4 4 3 3 5 7 9 10 9 7 8 8 7 6 6 5 5 6 6 7 7 7 8 7 7 8 8 7 7 7 7 7 8 8 9 9
1 1 1 1 1 4 6 5 2 5 7 6 5 6 5 5 4 5 4 5 5 6 8 9 8 7 8 6 5 5 5 4 5 6 6 4 5 6 6 7 6 7 7 7 7 7 7 8 7 7 8 8 9 9
2 1 1 2 4 4 4 6 6 5 5 6 5 5 6 5 6 6 6 4 6 7 8 6 6 6 4 4 3 3 4 4 5 5 5 5 4 5 6 6 6 7 8 8 8 8 8 8 8 7 8 8 8 7
1 1 2 2 5 5 6 3 5 5 5 6 6 6 7 8 7 6 5 7 7 6 5 5 5 4 4 4 4 3 3 3 3 4 6 5 5 6 6 6 6 7 7 7 7 8 7 7 7 7 7 7 7 8
1 2 3 4 6 6 7 3 6 6 8 7 6 7 7 7 6 4 7 6 6 4 3 4 3 3 4 4 4 3 3 3 4 5 5 5 5 5 5 6 5 6 7 7 7 7 7 8 7 7 7 8 8 9
2 4 6 6 7 8 6 7 6 7 6 7 8 9 8 7 5 7 8 7 5 4 4 4 4 4 4 4 4 4 4 3 4 4 4 4 5 6 5 5 6 6 6 7 7 7 7 8 8 7 8 8 9 9
8 8 7 8 6 8 9 9 8 8 9 8 9 9 7 6 8 9 9 7 6 5 5 4 4 4 5 4 4 3 3 3 4 5 3 3 4 4 5 5 5 5 5 6 7 8 8 8 8 7 8 8 9 9
10 8 9 8 8 8 8 10 9 9 8 9 8 7 6 8 9 10 8 6 6 6 6 6 4 5 5 4 5 5 4 3 4 5 4 4 4 5 5 6 6 6 4 6 7 7 8 8 8 8 8 8 8 9
10 9 7 5 6 7 8 7 7 8 10 10 9 8 8 11 11 8 5 4 4 3 2 3 3 4 5 5 4 3 3 3 4 4 3 3 3 3 4 5 6 4 4 5 6 7 7 8 8 8 8 8 8 8
9 9 11 9 8 7 9 9 9 10 9 8 8 10 10 10 9 6 5 3 2 2 2 2 2 3 4 5 5 5 4 4 4 4 3 3 3 3 4 3 4 7 5 5 6 7 7 7 7 8 8 8 8 7
9 9 9 10 8 8 8 9 9 7 6 7 9 9 8 6 6 5 4 3 3 4 5 6 6 5 5 5 5 5 5 6 6 7 8 7 6 5 5 6 6 5 6 6 7 7 6 7 7 7 7 8 7 7
12 9 11 10 10 9 7 6 6 5 5 5 5 5 5 6 6 5 5 5 6 7 6 6 6 6 7 7 7 6 5 5 5 6 8 8 7 6 6 6 7 6 6 7 7 7 8 7 8 8 8 8 8 8
9 9 10 11 10 8 6 5 5 5 5 6 5 6 6 7 6 5 5 4 5 5 7 7 7 7 7 7 7 7 7 5 5 5 6 5 5 5 6 5 6 6 6 7 7 7 7 7 7 7 8 8 8 8
10 11 12 13 11 7 6 7 6 6 6 6 6 5 6 6 8 7 6 5 6 7 8 8 8 8 6 6 5 5 6 6 6 6 6 6 5 5 5 5 5 5 6 6 6 7 7 7 7 7 7 7 8 8
10 10 9 11 11 11 9 9 8 8 7 7 7 6 7 8 10 7 6 5 7 8 8 8 7 6 6 6 6 6 6 7 6 6 6 6 6 6 5 5 5 5 6 6 6 6 7 7 7 7 7 7 8 8